www.pogodaiklimat.ru
ПОГОДА в Напе
Время
и дата
18:54 19.07
19:54 19.07
20:54 19.07
21:54 19.07
22:54 19.07
23:54 19.07
00:54 20.07
01:54 20.07
02:54 20.07
03:54 20.07
04:54 20.07
05:54 20.07
06:54 20.07
07:54 20.07
08:54 20.07
09:54 20.07
10:54 20.07
11:54 20.07
12:54 20.07
13:54 20.07
14:54 20.07
15:54 20.07
16:54 20.07
17:54 20.07
18:54 20.07
19:54 20.07
20:54 20.07
21:54 20.07
22:54 20.07
23:54 20.07
00:54 21.07
01:36 21.07
01:54 21.07
02:08 21.07
02:54 21.07
03:14 21.07
03:54 21.07
04:06 21.07
04:33 21.07
04:42 21.07
04:54 21.07
05:08 21.07
05:54 21.07
06:37 21.07
06:54 21.07
07:51 21.07
07:54 21.07
08:18 21.07
Ветер
(напр.,м/с)
Видим. Явления Облачность Т
(С)
Тd
(С)
f
(%)
Тe
(С)
Тes
(С)
Комфортность P
(гПа)
Po
(гПа)
Тmin
(С)
Tmax
(С)
R
(мм)
R24
(мм)
S
(см)
Ю 5 16 км ясно +26.1 +15.0 50 +29 +29 жарко 1010.7 1010.2
Ю 5 16 км ясно +23.9 +13.3 51 +26 +26 жарко 1011.3 1010.9
Ю 3 16 км ясно +20.6 +13.9 65 +23 +23 комфорт 1012.2 1011.9
ЮВ 3 16 км ясно +19.4 +13.9 70 +21 +21 комфорт 1012.3 1011.9 +19.4 +36.1
Ю 5 16 км ясно +18.3 +14.4 78 +18 +18 1012.2 1011.9
Ю 5 16 км ясно +17.2 +14.4 84 +17 +17 1011.9 1011.6
Ю 5 16 км ясно +16.7 +13.9 84 +16 +16 1011.8 1011.6
ЮЗ 4 16 км ясно +16.7 +14.4 86 +16 +16 1011.6 1011.2
Ю 3 16 км ясно +16.1 +13.9 87 +16 +16 1011.7 1011.2
Ю 3 16 км ясно +16.1 +13.9 87 +16 +16 1011.6 1011.2 +15.6 +19.4
ЮЗ 5 16 км ясно +15.6 +13.9 90 +14 +14 1011.9 1011.6
Ю 3 16 км мгла ясно +16.1 +13.9 87 +16 +16 1012.3 1011.9
ЮЗ 3 13 км мгла ясно +17.8 +13.9 78 +18 +19 1012.8 1012.6
Ю 4 16 км мгла ясно +18.9 +13.9 73 +20 +22 1013.2 1012.9
ЮЗ 4 13 км мгла ясно +20.6 +13.9 65 +23 +28 комфорт 1013.2 1012.9
ЮЗ 4 16 км мгла ясно +22.2 +13.9 59 +25 +33 комфорт 1013.0 1012.6 +15.6 +22.2
ЮЗ 4 16 км мгла ясно +24.4 +14.4 54 +27 +38 жарко 1012.7 1012.2
ЮЗ 5 16 км мгла ясно +25.0 +14.4 52 +28 +37 жарко 1012.5 1012.2
ЮЗ 6 16 км мгла ясно +25.6 +15.0 52 +28 +36 жарко 1012.0 1011.6
Ю 7 16 км мгла ясно +26.1 +14.4 48 +28 +34 жарко 1011.7 1011.2
Ю 7 16 км мгла ясно +27.2 +15.0 47 +30 +35 душно 1011.0 1010.5
Ю 8 16 км мгла ясно +26.1 +14.4 48 +28 +31 жарко 1010.5 1010.2 +22.2 +27.8
Ю 8
{11}
16 км мгла ясно +25.0 +14.4 52 +28 +29 жарко 1010.0 1009.5
Ю 7
{11}
16 км ясно +23.9 +15.0 57 +27 +28 жарко 1010.3 1009.9
Ю 7 16 км ясно +22.2 +15.0 64 +26 +26 душно 1010.8 1010.2
Ю 7 16 км ясно +20.6 +14.4 68 +23 +23 комфорт 1011.3 1010.9
Ю 8 16 км ясно +18.9 +14.4 75 +19 +19 1011.8 1011.6
ЮЗ 7 16 км ясно +17.8 +13.3 75 +17 +17 1011.9 1011.6 +17.8 +26.7
ЮЗ 7 16 км ясно +16.7 +13.3 80 +15 +15 1012.1 1011.6
ЮЗ 5 16 км ясно +16.1 +13.3 83 +15 +15 1012.2 1011.9
ЮЗ 6 16 км ясно +15.6 +13.3 86 +14 +14 1012.0 1011.6
ЮЗ 7 16 км 5/5 270 м +15.6 +13.3 86 +14 +14 1011.9
ЮЗ 6 16 км 8/8 270 м +15.0 +13.3 90 +13 +13 1012.2 1011.9
ЮЗ 6 16 км 8/8 300 м +15.0 +12.8 87 +13 +13 1011.9
ЮЗ 6 16 км 10/10 300 м +15.0 +12.8 87 +13 +13 1012.1 1011.6
ЮЗ 5 16 км 10/10 270 м +15.0 +12.8 87 +14 +14 1011.6
З 3 16 км 5/5 300 м +13.9 +11.7 87 +13 +13 1012.1 1011.9 +13.9 +16.1
З 2 16 км 8/8 300 м +13.9 +11.7 87 +13 +13 1011.9
З 3 16 км 8/8 270 м +12.8 +11.1 89 +11 +11 1011.9
З 3 16 км 5/5 270 м +12.8 +11.1 89 +11 +11 1011.9
16 км 5/5 270 м +12.8 +11.1 89 +12 +12 1012.5 1012.2
З 3 16 км 8/8 300 м +12.8 +11.1 89 +11 +11 1012.2
З 2 16 км 8/8 270 м +13.3 +11.7 90 +13 +13 1012.7 1012.2
З 3 16 км 10/10 330 м +13.9 +11.7 87 +13 +13 1012.6
З 4 16 км 5/5 300 м +14.4 +12.2 87 +13 +13 1013.2 1012.9
ЮЗ 6 16 км 8/8 330 м +16.0 +13.0 82 +15 +15 1012.9
Ю 6 16 км 8/8 210 м +16.1 +12.8 81 +15 +15 1013.3 1012.9
ЮЗ 5 16 км 5/5 300 м +17.8 +12.8 73 +17 +19 1012.9
Местоположение метеостанции Napa County Airport: широта 38.2075 долгота -122.2794 высота над уровнем моря 10 м.
В архиве по умолчанию представлена погода в Напе за последние 1-2 суток. Обновление информации о фактической погоде в базе происходит ежечасно! Архивные данные за месяц целиком и за предыдущие месяцы Вы можете получить, выбрав интересующий диапазон дат из раскрывающегося списка и нажав кнопку "Ввод!".
Внимание! Архив погоды МЕТАР в базе сайта по станциям, не включенным в климатический монитор, хранится не более 60 дней. Нет смысла пытаться выбрать более раннюю дату.
*Определитесь, кто Вы:
Внимание! Время в таблицах - местное (без учета летнего времени). Для получения всемирного времени необходимо вычесть поправку, которая равна -8 ч.
Смотрите также архив погоды в соседних городах и на ближайших метеорологических станциях:
Партнеры нашего сайта:      
Пояснения к столбцам:
  • Ветер - указаны скорость ветра в м/с - средняя за 10 мин, порывы в срок и между сроками (в фигурных скобках) и направление, откуда дует ветер: С - северный,
  • СВ - северо-восточный, В - восточный, ЮВ - юго-восточный, Ю - южный, ЮЗ - юго-западный, З - западный, СЗ - северо-западный.
  • Видимость - горизонтальная дальность видимости в метрах или километрах. При видимости от 1 до 10 км при отсутствии осадков обычно наблюдается дымка, при ухудшении видимости до 1 км и менее - туман. В сухую погоду видимость может ухудшаться дымом, пылью или мглою.
  • Явления - указаны атмосферные явления, наблюдавшиеся в срок или в последний час перед сроком; фигурными скобками обозначены явления, наблюдавшиеся между сроками (за 1-3 часа до срока); квадратными скобками обозначены град или гололедные отложения с указанием их диаметра в мм.
  • Облачность - указаны через наклонную черту общая и нижняя облачность в баллах и высота нижней границы облаков в метрах; квадратными скобками обозначены формы облаков: Ci - перистые, Cs - перисто-слоистые, Cc - перисто-кучевые, Ac - высококучевые, As - высокослоистые, Sc - слоисто-кучевые, Ns - слоисто-дождевые, Cu - кучевые, Cb - кучево-дождевые. Подробнее классификацию облаков см. в Атласе облаков (PDF).
  • T - Температура воздуха - температура, измеренная на высоте 2 м над землей.
  • Td - Температура точки росы - температура, при понижении до которой содержащийся в воздухе водяной пар достигнет насыщения.
  • f - Относительная влажность воздуха - влажноcть воздуха, измеренная на высоте 2 м над землей.
  • Te - Эффективная температура - температура, которую ощущает одетый по сезону человек в тени. Характеристика душности погоды. При расчете учитывается влияние влажности воздуха и скорости ветра на теплоощущения человека.
  • Tes - Эффективная температура на солнце - температура, которую ощущает человек, с поправкой на солнечный нагрев. Характеристика знойности погоды. Зависит от высоты солнца над горизонтом, облачности и скорости ветра. Ночью, в пасмурную погоду, а также при ветре 12 м/с и более поправка равна нулю.
  • P - Атмосферное давление - приведенное к уровню моря атмосферное давление.
  • Po - Атмосферное давление - измеренное на уровне метеостанции атмосферное давление.
  • Tmin - Минимальная температура - минимум температуры воздуха на высоте 2 м над землей.
  • Tmax - Максимальная температура - максимум температуры воздуха на высоте 2 м над землей.
  • R - Количество осадков - Количество выпавших осадков за период времени, мм. При наведении курсора мыши на число - период времени, за который выпало указанное количество осадков.
  • R24 - Количество осадков - Количество выпавших осадков за 24 часа, мм.
  • S - Снежный покров - Высота снежного покрова, см. При наведении курсора мыши на число - состояние снежного покрова и степень покрытия местности в баллах.